OpenBCM V1.08-5-g2f4a (Linux)

Packet Radio Mailbox

IZ3LSV

[San Dona' di P. JN]

 Login: GUEST





  
I0OJJ  > KEPS     13.05.25 02:44l 363 Lines 17238 Bytes #180 (0) @ AMSAT
BID : ORB25133.1
Subj: 2Line Orbital Elements 25133.AMSAT
Path: IZ3LSV<IK6IHL<IK7NXU<HB9ON<DK0WUE<PD0LPM<PI8ZTM<IR0AAB<I0OJJ<I0OJJ
Sent: 250513/0025z @:I0OJJ.ITA.EU [Rome] obcm1.08-10-g596e

>From i0ojj%i0ojj.ita.eu@i0ojj.ampr.org Tue May 13 02:25:08 2025
Received: from i0ojj.ampr.org by i0ojj.ampr.org (JNOS2.0p.8) with SMTP
	id AA17031711 ; Tue, 13 May 2025 02:25:08 +0200
Message-Id: <ORB25133.1@i0ojj.bbs>
>From: i0ojj@i0ojj.ita.eu
X-JNOS-User-Port: Telnet   (i0ojj @ 44.134.109.10)  -> Sending message

From: I0OJJ @ I0OJJ.ITA.EU (Gustavo)
To:   KEPS @ AMSAT
X-Info: This message was generated automatically


QST de W1STR

AMSAT Orbital Elements for Amateur Satellites in TLE Format
>From Orbital Analysis Office
New England Sci-Tech STEM Education Center
Natick, MA May 13, 2025
To all radio amateurs


These element sets describe the orbits of various satellites 
in use by the amateur radio community. For details see:
www.amsat.org/keplerian-elements-formats/

A daily update of element sets is available at:
www.amsat.org/tle/daily-bulletin.txt
or without bulletin text:
www.amsat.org/tle/dailytle.txt


AO-07
1 07530U 74089B   25132.87697381 -.00000037  00000-0  61535-4 0  9990
2 07530 101.9938 136.8456 0012262 173.2103 252.5250 12.53689085310597
UO-11
1 14781U 84021B   25132.45060335  .00001665  00000-0  18128-3 0  9996
2 14781  97.7526  99.3813 0009421  72.8903 287.3346 14.89302725197457
AO-27
1 22825U 93061C   25132.87474013  .00000134  00000-0  68465-4 0  9996
2 22825  98.7382 194.2895 0008276 186.4043 173.7035 14.30789753650021
FO-29
1 24278U 96046B   25132.58360830  .00000024  00000-0  58680-4 0  9991
2 24278  98.5791  30.1567 0350855  55.2307 308.1335 13.53247077418986
NOAA-15
1 25338U 98030A   25132.83423535  .00000243  00000-0  11740-3 0  9992
2 25338  98.5369 158.6310 0011498  82.3997 277.8489 14.26963469404449
GO-32
1 25397U 98043D   25132.52209879  .00000090  00000-0  58951-4 0  9996
2 25397  98.9690 111.0584 0000511 346.4371  13.6793 14.24307887394294
ISS
1 25544U 98067A   25132.50312106  .00009857  00000-0  18368-3 0  9999
2 25544  51.6369 123.8322 0002547 103.4148  41.3705 15.49493405509628
NO-44
1 26931U 01043C   25132.56347590  .00000160  00000-0  91012-4 0  9995
2 26931  67.0505 200.2760 0005806 273.5885  86.4552 14.31720904233098
SO-50
1 27607U 02058C   25132.54075675  .00001287  00000-0  17831-3 0  9990
2 27607  64.5527 287.0799 0052981 340.5246  19.3834 14.81551610205078
CO-55
1 27844U 03031E   25132.50342012  .00000367  00000-0  17920-3 0  9990
2 27844  98.6766 141.1389 0008350 268.9882  91.0340 14.23974323134648
CO-57
1 27848U 03031J   25132.50904358  .00000317  00000-0  15904-3 0  9996
2 27848  98.6793 141.1712 0008298 288.7793  71.2485 14.23312024134378
RS-22
1 27939U 03042A   25132.88889559  .00001395  00000-0  22897-3 0  9991
2 27939  98.3261 301.6765 0012745  97.6603  39.9372 14.72282948156753
NOAA-18
1 28654U 05018A   25132.80525200  .00000237  00000-0  14881-3 0  9991
2 28654  98.8421 212.5934 0013872 203.8761 156.1769 14.13596117 29827
CO-58
1 28895U 05043F   25132.35666827  .00001959  00000-0  32773-3 0  9999
2 28895  98.2457 276.3623 0015207  41.1229 319.1120 14.70921597 42796
CO-65
1 32785U 08021C   25132.60114796  .00006258  00000-0  45523-3 0  9996
2 32785  97.7830 103.5658 0008711 313.7811  46.2693 15.04148048924875
AAUSAT2
1 32788U 08021F   25132.50661252  .00916446  39209-3  20568-2 0  9998
2 32788  97.5880 131.0112 0009045 158.3313 201.8348 15.97725610929074
CO-66
1 32791U 08021J   25132.43186522  .00012926  00000-0  63804-3 0  9991
2 32791  97.7261 111.8630 0001508 259.4642 100.6422 15.18029746926221
RS-30
1 32953U 08025A   25132.79768782  .00000022  00000-0  84535-4 0  9997
2 32953  82.5031 244.4518 0020556 106.8995 253.4340 12.43163928770089
NOAA-19
1 33591U 09005A   25132.87800336  .00000215  00000-0  13846-3 0  9996
2 33591  98.9984 197.4252 0014829  83.5138 276.7722 14.13360021838195
SRMSAT
1 37841U 11058D   25132.52309697  .00000457  00000-0  10432-3 0  9991
2 37841  19.9734 324.3330 0011794 116.2626 270.7096 14.11427051701142
ZACUBE-1
1 39417U 13066B   25132.83787124  .00005119  00000-0  44772-3 0  9996
2 39417  97.7794  90.0082 0045582 142.4042 218.0381 14.96385170620767
Delfi-N3xt
1 39428U 13066N   25132.52313108  .00007945  00000-0  81315-3 0  9994
2 39428  97.8367  50.4971 0087492  92.8026 268.3209 14.87939583614908
GOMX-1
1 39430U 13066Q   25132.80448234  .00001680  00000-0  26854-3 0  9994
2 39430  97.6866 353.1708 0131210 281.5481  77.1018 14.67538077611333
LO-74
1 39440U 13066AA  25132.60349903  .00004116  00000-0  42114-3 0  9990
2 39440  97.8487  77.3644 0060403 272.6587  86.7717 14.89747444617277
AO-73
1 39444U 13066AE  25132.83563572  .00007656  00000-0  57853-3 0  9997
2 39444  97.7814  94.6516 0042926 119.3146 241.2377 15.01915106620015
DTUSAT-2
1 40030U 14033W   25132.62267079  .00006412  00000-0  42209-3 0  9993
2 40030  98.0533 103.1020 0010329 144.5903 215.6012 15.07878110592185
EO-80
1 40032U 14033Y   25132.44539695  .00007197  00000-0  47213-3 0  9992
2 40032  98.0424 102.6100 0010801  94.5189 265.7271 15.07951615592134
LILACSAT-2
1 40908U 15049K   25132.83885765  .00011263  00000-0  30056-3 0  9993
2 40908  97.5070 152.5265 0007418 254.9262 105.1162 15.38272339533962
IO-86
1 40931U 15052B   25038.81889873  .00001817  00000-0  15548-3 0  9993
2 40931   6.0001 108.1159 0012838 187.7041 172.2889 14.78568669506492
Horyu-4
1 41340U 16012D   25132.86573139  .00022792  00000-0  63212-3 0  9996
2 41340  30.9976 318.1487 0006911 118.4597 241.6745 15.35680693508527
Lapan A3
1 41603U 16040E   25132.83130660  .00003691  00000-0  13070-3 0  9998
2 41603  97.1370 138.5313 0011450  18.9437 341.2228 15.29667064493543
CAS-2T
1 41847U 16066G   25132.46825809  .00000895  00000-0  13788-3 0  9990
2 41847  98.4205 207.1735 0345139 263.5328  92.6464 14.43403471446964
CAS-4B
1 42759U 17034B   25132.45262661  .00067448  00000-0  80884-3 0  9997
2 42759  43.0062 129.0837 0017803  94.8350 265.4547 15.59840069438209
CAS-4A
1 42761U 17034D   25132.69850898  .00063901  00000-0  73524-3 0  9994
2 42761  43.0099 125.0568 0019052 101.1407 259.1600 15.60906985438260
TechnoSat
1 42829U 17042E   25132.72349577  .00003230  00000-0  25321-3 0  9990
2 42829  97.3927 302.7671 0014438  20.8668 339.3144 15.01562925426544
AO-91
1 43017U 17073E   25132.59244673  .00007957  00000-0  41347-3 0  9996
2 43017  97.5285   4.0770 0172659 261.9090  96.2517 15.04299659405007
S-Net D
1 43186U 18014G   25132.30058476  .00005388  00000-0  32134-3 0  9992
2 43186  97.5653  35.4982 0008151 333.5196  26.5617 15.11547248398101
S-Net B
1 43187U 18014H   25132.17321355  .00005329  00000-0  31803-3 0  9994
2 43187  97.5661  35.3426 0008690 328.2839  31.7867 15.11527996398086
S-Net A
1 43188U 18014J   25132.30106084  .00005322  00000-0  31741-3 0  9994
2 43188  97.5666  35.6154 0008614 328.3079  31.7631 15.11552560398103
S-Net C
1 43189U 18014K   25132.44034063  .00005235  00000-0  31244-3 0  9998
2 43189  97.5686  35.7628 0009845 318.3646  41.6834 15.11527754396671
Ten-Koh
1 43677U 18084G   25132.45473206  .00002427  00000-0  19802-3 0  9990
2 43677  98.0889 303.5949 0006514  19.6893 340.4579 15.00446457356020
PO-101
1 43678U 18084H   25132.80621955  .00002348  00000-0  20311-3 0  9995
2 43678  98.1008 307.8762 0008376  23.1947 336.9650 14.98203036356225
QO-100
1 43700U 18090A   25132.64211369  .00000161  00000-0  00000-0 0  9995
2 43700   0.0178 273.3503 0002353 174.7951  39.4829  1.00274539 23665
MinXSS-2
1 43758U 18099A   25132.12017173  .00016174  00000-0  65264-3 0  9994
2 43758  97.5036 198.0804 0010748 250.4600 109.5477 15.24826567352634
AO-95
1 43770U 18099N   25132.61470774  .00009369  00000-0  48046-3 0  9999
2 43770  97.4935 191.0170 0009175 314.2240  45.8239 15.16731863352313
RANGE-A
1 43773U 18099R   25132.55031572  .00005459  00000-0  35046-3 0  9996
2 43773  97.4501 181.7661 0009780 290.0378  69.9798 15.08830964351994
MOVE-II
1 43780U 18099Y   25132.62243562  .00156715  00000-0  15418-2 0  9998
2 43780  97.4676 206.3471 0006091 214.4789 145.6076 15.65475795353416
SNUSat 2
1 43782U 18099AA  25132.59080323  .00007519  00000-0  41495-3 0  9992
2 43782  97.4616 187.9705 0010754 245.7450 114.2659 15.14183961352265
SnugLite
1 43784U 18099AC  25132.12331149  .00010355  00000-0  52647-3 0  9991
2 43784  97.4430 187.0174 0002244 230.0819 130.0217 15.17037687352322
ITASat 1
1 43786U 18099AE  25132.56581062  .00007226  00000-0  41691-3 0  9992
2 43786  97.4584 187.5369 0012895 305.9873  54.0162 15.12580416352221
EAGLET 1
1 43790U 18099AJ  25132.56597069  .00005042  00000-0  32408-3 0  9991
2 43790  97.4782 187.5834 0010568 287.0283  72.9788 15.08815393351843
ESEO
1 43792U 18099AL  25132.89801085  .00001644  00000-0  12810-3 0  9994
2 43792  97.4459 181.5391 0011389 258.5791 101.4156 15.02492551351665
CSIM
1 43793U 18099AM  25132.78770858  .00134131  00000-0  13426-2 0  9997
2 43793  97.4836 208.7503 0007854 211.2953 148.7840 15.65096785353282
JO-97
1 43803U 18099AX  25132.41793801  .00013197  00000-0  61169-3 0  9998
2 43803  97.4682 191.7565 0006454 232.4438 127.6211 15.20185930352492
Suomi 100
1 43804U 18099AY  25132.38792704  .00011561  00000-0  57325-3 0  9998
2 43804  97.4744 191.1013 0011327 240.5619 119.4485 15.17836086352426
ISAT
1 43879U 18111D   25132.29512601  .00023110  00000-0  82534-3 0  9994
2 43879  97.5982  46.0853 0006650 307.5300  52.5334 15.28835741349376
UWE-4
1 43880U 18111E   25132.72837332  .00014927  00000-0  59793-3 0  9992
2 43880  97.5925  45.1948 0010425 316.7148  43.3270 15.25096278347384
Sparrow
1 43881U 18111F   25132.49539330  .00020983  00000-0  72374-3 0  9993
2 43881  97.6122  49.0611 0006378 359.7497   0.3739 15.29995715349496
Prox-1
1 44339U 19036A   25132.63113351  .00010779  00000-0  13781-2 0  9994
2 44339  23.9971 245.3073 0007861 109.6870 250.4475 14.79396593313878
